Location: Shenandoah County Park
(38.9356°N, 78.4524°W)
Time: 05:46:39
(UTC-04:00)

Explorer 11/Cluster Stage 4 - Pass Details

Date: 26 February 2024
Orbit: 465 x 1220 km, 28.8° (Epoch: 12 April)

Event Time Altitude Azimuth Distance (km) Brightness Sun altitude
Rises 00:56:51 0° 236° (SW) 4,116 - -59.2°
Reaches altitude 10° 01:00:05 10° 227° (SW) 3,163 - -59.0°
Maximum altitude 01:06:58 32° 168° (SSE) 1,904 - -58.6°
Drops below altitude 10° 01:13:26 10° 108° (ESE) 2,961 - -58.2°
Sets 01:16:22 0° 99° (E) 3,821 - -58.0°
